Sussex, NJ

12:52 AM EST on December 14, 2019 (GMT -0500)
Sussex

Weather History for KFWN - November, 2019

Change the Weather History Date:

Saturday, November 16, 2019

  Actual Average Record
Temperature  
Mean Temperature 31 °F -  
Max Temperature 37 °F 49 °F 72 °F (1973)
Min Temperature 24 °F 29 °F 12 °F (1967)
Degree Days  
Heating Degree Days 34    
Moisture  
Dew Point 7 °F    
Average Humidity 37    
Maximum Humidity 59    
Minimum Humidity 24    
Precipitation  
Precipitation 0.00 in - - ()
Sea Level Pressure  
Sea Level Pressure 30.42 in    
Wind  
Wind Speed 8 mph ()    
Max Wind Speed 17 mph    
Max Gust Speed 26 mph    
Visibility 10.0 miles    
Events      
Averages and records for this station are not official NWS values.
T = Trace of Precipitation, MM = Missing Value Source: Averaged Metar Reports

Daily Weather History Graph

Daily Weather History Graph

Search for Another Location

Airport or City:

Astronomy

Nov. 16, 2019 Rise Set
Actual Time 6:47 AM EST 4:38 PM EST
Civil Twilight 6:17 AM EST 5:08 PM EST
Nautical Twilight 5:44 AM EST 5:41 PM EST
Astronomical Twilight 5:11 AM EST 6:14 PM EST
Moon 8:07 PM EST (11/16) 10:39 AM EST (11/16)
Length of Visible Light 10h 50m
Length of Day
9h 51m
Waning Gibbous, 82% of the Moon is Illuminated
Nov 16
Waning Gibbous
Nov 19
Last Quarter
Nov 26
New
Dec 4
First Quarter
Dec 12
Full

Hourly Weather History & Observations

Time (EST) Temp. Windchill Dew Point Humidity Pressure Visibility Wind Dir Wind Speed Gust Speed Precip Events Conditions
12:53 AM 36.0 °F 32.1 °F 23.0 °F 59% 30.26 in 10.0 mi Variable 4.6 mph - N/A   Scattered Clouds
1:53 AM 37.0 °F - 24.1 °F 59% 30.27 in 10.0 mi Calm Calm - N/A   Overcast
2:53 AM 37.9 °F 32.1 °F 24.1 °F 57% 30.28 in 10.0 mi North 8.1 mph 17.3 mph N/A   Overcast
3:53 AM 36.0 °F 30.3 °F 21.0 °F 55% 30.30 in 10.0 mi North 6.9 mph - N/A   Partly Cloudy
4:53 AM 33.1 °F 27.7 °F 17.1 °F 52% 30.33 in 10.0 mi Variable 5.8 mph - N/A   Clear
5:53 AM 30.0 °F 18.3 °F 9.0 °F 41% 30.39 in 10.0 mi NE 17.3 mph 26.5 mph N/A   Clear
6:53 AM 28.0 °F 17.5 °F 6.1 °F 39% 30.44 in 10.0 mi NE 12.7 mph 19.6 mph N/A   Clear
7:53 AM 28.9 °F 16.9 °F 3.0 °F 33% 30.47 in 10.0 mi NNE 17.3 mph 24.2 mph N/A   Clear
8:53 AM 30.0 °F 19.5 °F 3.9 °F 33% 30.48 in 10.0 mi NE 13.8 mph 19.6 mph N/A   Clear
9:53 AM 32.0 °F 21.6 °F 3.9 °F 31% 30.49 in 10.0 mi ENE 15.0 mph 24.2 mph N/A   Clear
10:53 AM 33.1 °F 23.9 °F 3.0 °F 28% 30.49 in 10.0 mi NE 12.7 mph 23.0 mph N/A   Clear
11:53 AM 35.1 °F 26.4 °F 3.9 °F 27% 30.47 in 10.0 mi NNE 12.7 mph 19.6 mph N/A   Clear
12:53 PM 36.0 °F 29.0 °F 3.0 °F 25% 30.45 in 10.0 mi NNE 9.2 mph 20.7 mph N/A   Clear
1:53 PM 37.0 °F 28.9 °F 3.9 °F 25% 30.44 in 10.0 mi NNE 12.7 mph - N/A   Clear
2:53 PM 37.0 °F 29.3 °F 3.0 °F 24% 30.44 in 10.0 mi NNE 11.5 mph - N/A   Clear
3:53 PM 35.1 °F 27.9 °F 3.0 °F 26% 30.45 in 10.0 mi NE 9.2 mph - N/A   Clear
4:53 PM 32.0 °F 27.5 °F 3.0 °F 29% 30.46 in 10.0 mi NE 4.6 mph - N/A   Clear
5:53 PM 30.9 °F 22.8 °F 3.9 °F 32% 30.46 in 10.0 mi NE 9.2 mph - N/A   Clear
6:53 PM 30.0 °F 21.1 °F 3.9 °F 33% 30.48 in 10.0 mi NE 10.4 mph - N/A   Clear
7:53 PM 28.0 °F 20.8 °F 3.0 °F 34% 30.49 in 10.0 mi NNE 6.9 mph - N/A   Clear
8:53 PM 27.0 °F 18.7 °F 3.0 °F 36% 30.48 in 10.0 mi NE 8.1 mph - N/A   Clear
9:53 PM 26.1 °F 19.4 °F 1.9 °F 35% 30.46 in 10.0 mi NE 5.8 mph - N/A   Clear
10:53 PM 25.0 °F 18.1 °F 3.0 °F 39% 30.45 in 10.0 mi NE 5.8 mph - N/A   Clear
11:53 PM 24.1 °F 17.0 °F 3.0 °F 40% 30.46 in 10.0 mi NNE 5.8 mph - N/A   Clear